Regional Weather Roundup
Issued by NWS

Home | Current Version | Previous Version | Graphics & Text | Print | Product List | Glossary On
Versions: 1 2 3 4 5 6 7 8 9 10 11 12 13 14 15 16 17 18 19 20 21 22 23 24 25 26 27 28 29 30 31 32 33 34 35 36 37 38 39 40 41 42 43 44 45 46 47 48 49 50
000
ASUS43 KMPX 212310
RWRMN
WEATHER ROUNDUP FOR MINNESOTA
NATIONAL WEATHER SERVICE TWIN CITIES/CHANHASSEN MN
600 PM CDT THU SEP 21 2017


NOTE: "FAIR" INDICATES FEW OR NO CLOUDS BELOW 12,000 FEET WITH NO
SIGNIFICANT WEATHER AND/OR OBSTRUCTIONS TO VISIBILITY. N/A MEANS
CURRENT SKY AND/OR WEATHER CONDITIONS ARE NOT AVAILABLE.

MNZ060>063-068>070-220000-
   Twin Cities Metro

CITY           SKY/WX    TMP DP  RH WIND       PRES   REMARKS
TWIN CITIES    MOSUNNY   83  70  64 SE10      29.80S
ST PAUL        SUNNY     81  69  67 SE13      29.81S
CRYSTAL        MOSUNNY   81  65  58 SE10      29.79S
BLAINE         MOSUNNY   82  68  61 SE10      29.81S
LAKEVILLE      MOSUNNY   82  70  65 SE6       29.80F
EDEN PRAIRIE   PTSUNNY   84  69  60 SE8       29.79S
SOUTH ST PAUL  SUNNY     82  67  59 SE5       29.80F
LAKE ELMO      FAIR      81  68  65 SE8       29.84S
$$
MNZ001>005-007-008-013>017-022>024-027-028-220000-
   Northwest Minnesota

CITY           SKY/WX    TMP DP  RH WIND       PRES   REMARKS
BEMIDJI        PTSUNNY   72  50  46 SE13      29.79S
HALLOCK          N/A     81  39  22 S17       29.68R
ROSEAU         SUNNY     75  50  41 SE16G22   29.73S
WARROAD        SUNNY     73  52  46 SE14      29.74F
THIEF RVR FALL CLOUDY    75  49  39 SE15      29.73S
CROOKSTON      PTSUNNY   77  50  38 S14       29.70S
FOSSTON        MOSUNNY   73  50  43 SE10G17   29.74F
DETROIT LAKES  MOSUNNY   73  55  53 SE13      29.75S
MOORHEAD       MOSUNNY   79  57  47 SE13G18   29.69S
PARK RAPIDS    MOSUNNY   73  54  51 SE10      29.79R
MAHNOMEN       MOCLDY    74  54  48 SE13G18   29.73S
$$
MNZ006-009>011-018-025>026-220000-
   North Central Minnesota

CITY           SKY/WX    TMP DP  RH WIND       PRES   REMARKS
BAUDETTE       SUNNY     73  48  41 SE17G24   29.77F
FLAG ISLAND    SUNNY     70  52  52 SE7       29.75F
INTL FALLS     SUNNY     69  50  50 SE9       29.83F
WASKISH        PTSUNNY   72  52  49 SE12      29.79S
BIG FORK       SUNNY     72  48  43 SE7       29.84R
LONGVILLE      SUNNY     73  54  49 SE5       29.81S
GRAND RAPIDS   SUNNY     72  55  55 SE9       29.85R
CRANE LAKE     SUNNY     70  48  46 CALM      29.88F
ORR            SUNNY     70  45  40 SE6       29.82F
COOK           SUNNY     72  50  46 SE7       29.86F
WALKER         CLOUDY    71  52  51 SE6       29.79F
$$
MNZ012-019>021-037-220000-
   Northeast Minnesota

CITY           SKY/WX    TMP DP  RH WIND       PRES   REMARKS
DULUTH         MOSUNNY   64  55  72 E18       29.90S
ELY            SUNNY     66  50  55 E12       29.91F
HIBBING        SUNNY     69  54  58 SE16G24   29.86F
EVELETH        SUNNY     70  47  45 SE12      29.89F
DULUTH HARBOR  SUNNY     63  59  88 NE24G30   29.90S
TWO HARBORS    SUNNY     66  55  68 E12G17    29.91F
SILVER BAY     SUNNY     63  54  72 E8G17     29.93F
GRAND MARAIS     N/A     63  53  70 NE8       29.97F
G MARAIS ARPRT CLEAR     59  45  58 E8        30.00F
$$
MNZ029>031-032-039>041-046>048-054>057-064-220000-
   West Central Minnesota

CITY           SKY/WX    TMP DP  RH WIND       PRES   REMARKS
FERGUS FALLS   CLOUDY    77  64  65 SE7       29.70S
WHEATON        SUNNY     82  66  57 SE17      29.68S
MORRIS         SUNNY     82  68  61 SE16      29.69S
ALEXANDRIA     SUNNY     77  67  71 SE13      29.75F
ELBOW LAKE     CLOUDY    76  67  71 SE12      29.71F HAZE
WADENA         CLOUDY    73  61  64 SE9       29.77R
GLENWOOD       SUNNY     79  68  69 SE14      29.75F
APPLETON       MOSUNNY   84  68  58 SE13G20   29.68S
BENSON         PTSUNNY   81  68  65 S13G18    29.72S
ORTONVILLE     MOSUNNY   82  70  65 NE13      29.67S
MADISON        SUNNY     86  72  62 SE9       29.68S HX  92
WILLMAR        PTSUNNY   81  70  69 SE13      29.74S
$$
MNZ033>034-036-042>043-049>051-058-059-220000-
   Central Minnesota

CITY           SKY/WX    TMP DP  RH WIND       PRES   REMARKS
ST CLOUD       PTSUNNY   79  69  71 SE15      29.79S
SAUK CENTRE    FAIR      77  68  73 SE9       29.77S
PAYNESVILLE    PTSUNNY   80  69  69 SE10      29.77S
AITKIN         SUNNY     75  57  53 SE9       29.81S
PINE RIVER     SUNNY     72  55  56 SE12      29.83S
BRAINERD       SUNNY     75  59  57 SE9       29.80S
STAPLES        PTSUNNY   73  59  60 SE6       29.79R
LITTLE FALLS   PTSUNNY   77  59  53 SE7       29.79S
LITCHFIELD     SUNNY     81  70  69 SE10      29.77F
BUFFALO        MOSUNNY   80  67  64 SE8       29.80F
MAPLE LAKE     SUNNY     80  70  71 SE7       29.80F
HUTCHINSON     SUNNY     82  72  71 SE12      29.77F
$$
MNZ037-044-045-052-053-220000-
   East Central Minnesota

CITY           SKY/WX    TMP DP  RH WIND       PRES   REMARKS
PRINCETON      MOSUNNY   81  66  61 SE8       29.81S
MORA           SUNNY     75  63  64 SE8       29.84S
CAMBRIDGE      SUNNY     81  66  61 SE10G20   29.82R
RUSH CITY      PTSUNNY   79  67  66 SE9G17    29.83S
MOOSE LAKE     MOSUNNY   68  59  73 NE7       29.84S
HINCKLEY       FAIR      79  66  65 E9        29.83F
CLOQUET        SUNNY     64  55  72 E14G20    29.89F
MCGREGOR       SUNNY     72  59  64 E13       29.85S
$$
MNZ071>073-080-081-089-090-097-098-220000-
   Southwest Minnesota

CITY           SKY/WX    TMP DP  RH WIND       PRES   REMARKS
MONTEVIDEO     MOSUNNY   84  72  65 S9        29.69S
GRANITE FALLS  PTSUNNY   84  73  67 SE13G21   29.71S HX  90
CANBY          SUNNY     85  68  55 S8        29.69S
MARSHALL       SUNNY     85  71  63 S18G30    29.69S HX  90
REDWOOD FALLS  MOSUNNY   85  71  63 SE16G24   29.71F HX  90
OLIVIA         SUNNY     82  70  65 SE16      29.72F
PIPESTONE      SUNNY     82  72  69 S15       29.72R
WORTHINGTON    MOSUNNY   82  71  69 S14G23    29.76R
JACKSON        SUNNY     82  68  61 S14G21    29.77S
TRACY          SUNNY     84  72  67 S14G26    29.72S
SLAYTON        SUNNY     82  69  64 S18G24    29.74S
$$
MNZ065>067-074>077-082>085-091>093-220000-
   South Central Minnesota

CITY           SKY/WX    TMP DP  RH WIND       PRES   REMARKS
MANKATO        PTSUNNY   86  70  58 S12G18    29.78R HX  90
NEW ULM        MOSUNNY   84  70  61 S13       29.74F
ST JAMES       MOSUNNY   86  70  58 SE15      29.75F HX  90
FAIRMONT       SUNNY     86  70  58 S21G29    29.75F HX  90
GLENCOE        SUNNY     83  73  69 E10       29.77F
FARIBAULT      MOSUNNY   84  72  65 SE10      29.80F
OWATONNA       MOSUNNY   86  70  58 SE13      29.81S HX  90
WASECA         PTSUNNY   82  68  61 SE7       29.81S
ALBERT LEA     PTSUNNY   90  70  51 S8        29.81S HX  95
$$
MNZ078>079-086>088-094>096-220000-
   Southeast Minnesota

CITY           SKY/WX    TMP DP  RH WIND       PRES   REMARKS
ROCHESTER      SUNNY     84  67  56 SE12      29.86S
RED WING       SUNNY     82  64  54 SE10G17   29.82S
STANTON        MOSUNNY   84  70  63 SE3       29.80S
DODGE CENTER   MOSUNNY   84  64  51 SE10      29.84S
WINONA         SUNNY     81  64  57 SE10      29.86S
AUSTIN         MOSUNNY   86  66  51 S9        29.83S
PRESTON        SUNNY     85  64  49 SE12      29.87S
$$
ABBREVIATIONS USED IN REMARKS
   TC - TEMPERATURES IN CELSIUS
  WCI - WIND CHILL INDEX
   HX - HEAT INDEX
  VSB - VISIBILITY
$$



USA.gov is the U.S. government's official web portal to all federal, state and local government web resources and services.